TimeEST,TemperatureF,Dew PointF,Humidity,Sea Level PressureIn,VisibilityMPH,Wind Direction,Wind SpeedMPH,Gust SpeedMPH,PrecipitationIn,Events,Conditions,WindDirDegrees,DateUTC
12:53 AM,34.0,30.9,89,29.64,7.0,NE,10.4,20.7,0.04,Rain,Light Rain,40,2013-12-22 05:53:00
1:53 AM,35.1,30.9,85,29.59,7.0,ENE,11.5,-,0.02,Rain,Light Rain,60,2013-12-22 06:53:00
2:53 AM,35.1,32.0,89,29.56,8.0,NE,9.2,-,0.00,Rain,Light Rain,50,2013-12-22 07:53:00
3:53 AM,35.1,32.0,89,29.61,3.0,NE,9.2,-,0.01,,Overcast,50,2013-12-22 08:53:00
4:08 AM,35.6,32.0,87,29.57,3.0,ENE,11.5,-,0.00,,Overcast,70,2013-12-22 09:08:00
4:44 AM,35.6,32.0,87,29.58,2.5,NE,9.2,-,0.01,Rain,Light Rain,50,2013-12-22 09:44:00
4:53 AM,35.1,32.0,89,29.59,3.0,NE,8.1,-,0.02,Rain,Light Rain,50,2013-12-22 09:53:00
5:53 AM,35.1,32.0,89,29.58,4.0,NE,9.2,-,0.03,Rain,Light Rain,50,2013-12-22 10:53:00
6:53 AM,35.1,32.0,89,29.58,5.0,NNE,9.2,-,0.02,Rain,Light Rain,30,2013-12-22 11:53:00
7:28 AM,35.6,32.0,87,29.57,4.0,NE,5.8,-,0.00,Rain,Light Rain,40,2013-12-22 12:28:00
7:53 AM,35.1,32.0,89,29.60,3.0,ENE,4.6,-,0.00,,Overcast,60,2013-12-22 12:53:00
8:53 AM,35.1,32.0,89,29.63,4.0,Calm,Calm,-,0.01,,Overcast,0,2013-12-22 13:53:00
9:27 AM,35.6,32.0,87,29.63,2.0,Calm,Calm,-,N/A,,Overcast,0,2013-12-22 14:27:00
9:43 AM,35.6,33.8,93,29.63,4.0,Calm,Calm,-,N/A,,Overcast,0,2013-12-22 14:43:00
9:53 AM,35.1,33.1,92,29.65,6.0,Calm,Calm,-,N/A,,Overcast,0,2013-12-22 14:53:00
10:51 AM,35.6,33.8,93,29.66,5.0,SW,4.6,-,N/A,,Overcast,230,2013-12-22 15:51:00
10:53 AM,36.0,33.1,89,29.68,5.0,SW,3.5,-,N/A,,Overcast,230,2013-12-22 15:53:00
11:53 AM,37.9,35.1,89,29.68,9.0,WSW,15.0,23.0,N/A,,Overcast,240,2013-12-22 16:53:00
12:36 PM,39.2,33.8,81,29.66,10.0,WSW,19.6,28.8,N/A,,Overcast,240,2013-12-22 17:36:00
12:53 PM,39.9,34.0,79,29.69,10.0,WSW,23.0,33.4,N/A,,Overcast,240,2013-12-22 17:53:00
1:53 PM,39.9,34.0,79,29.73,10.0,WSW,21.9,28.8,N/A,,Overcast,250,2013-12-22 18:53:00
2:53 PM,39.9,33.1,77,29.76,10.0,West,15.0,23.0,N/A,,Overcast,260,2013-12-22 19:53:00
3:25 PM,39.2,33.8,81,29.77,10.0,West,16.1,23.0,N/A,,Overcast,260,2013-12-22 20:25:00
3:53 PM,39.9,33.1,77,29.81,10.0,West,13.8,23.0,0.00,Rain,Light Rain,260,2013-12-22 20:53:00
4:53 PM,39.9,33.1,77,29.85,10.0,West,9.2,-,0.00,,Overcast,260,2013-12-22 21:53:00
5:39 PM,39.2,32.0,75,29.87,10.0,WSW,9.2,-,N/A,,Overcast,250,2013-12-22 22:39:00
5:53 PM,39.0,32.0,76,29.89,10.0,WSW,9.2,-,N/A,,Overcast,250,2013-12-22 22:53:00
6:53 PM,39.0,32.0,76,29.90,10.0,West,6.9,-,N/A,,Overcast,260,2013-12-22 23:53:00
7:53 PM,39.0,32.0,76,29.92,10.0,WSW,6.9,-,N/A,,Overcast,240,2013-12-23 00:53:00
8:53 PM,37.9,32.0,79,29.94,10.0,WSW,5.8,-,N/A,,Overcast,250,2013-12-23 01:53:00
9:53 PM,37.9,32.0,79,29.94,10.0,WSW,8.1,-,N/A,,Overcast,240,2013-12-23 02:53:00
10:25 PM,37.4,32.0,81,29.93,10.0,SW,6.9,-,N/A,,Overcast,230,2013-12-23 03:25:00
10:53 PM,37.0,32.0,82,29.96,10.0,SW,8.1,-,N/A,,Overcast,230,2013-12-23 03:53:00
11:00 PM,37.4,32.0,81,29.94,10.0,WSW,8.1,-,N/A,,Overcast,240,2013-12-23 04:00:00
11:12 PM,37.4,32.0,81,29.94,10.0,WSW,6.9,-,N/A,,Overcast,250,2013-12-23 04:12:00
11:19 PM,37.4,32.0,81,29.93,10.0,WSW,6.9,-,N/A,,Overcast,240,2013-12-23 04:19:00
11:53 PM,37.0,32.0,82,29.97,10.0,WSW,6.9,-,N/A,,Overcast,240,2013-12-23 04:53:00